| time (UTC) | temp F | wind direction | speed MPH | gust MPH | rain 1hr in | rain 24hr in | rain mn in | humidity % | barometer mb |
| 20260510160023 | 48 | 0 | 0.0 | 0.0 | 0.01 | 0.02 | 0.01 | 92 | 1031.4 |
| 20260510155423 | 48 | 0 | 0.0 | 0.0 | 0.01 | 0.02 | 0.01 | 92 | 1031.4 |
| 20260510154502 | 48 | 0 | 0.0 | 0.0 | 0.01 | 0.02 | 0.01 | 91 | 1031.4 |
| 20260510153623 | 48 | 0 | 0.0 | 0.0 | 0.01 | 0.02 | 0.01 | 91 | 1031.5 |
| 20260510152702 | 48 | 0 | 0.0 | 0.0 | 0.01 | 0.02 | 0.01 | 91 | 1031.4 |
| 20260510151802 | 49 | 0 | 0.0 | 0.0 | 0.01 | 0.02 | 0.01 | 91 | 1031.3 |
| 20260510150903 | 49 | 0 | 0.0 | 1.0 | 0.01 | 0.02 | 0.01 | 91 | 1031.4 |
| 20260510150023 | 49 | 0 | 0.0 | 2.0 | 0.00 | 0.01 | 0.00 | 91 | 1031.4 |
| 20260510145402 | 49 | 0 | 0.0 | 1.0 | 0.00 | 0.01 | 0.00 | 91 | 1031.5 |
| 20260510144502 | 50 | 157 | 0.0 | 3.0 | 0.00 | 0.01 | 0.00 | 91 | 1031.5 |
| 20260510143602 | 50 | 157 | 2.0 | 5.0 | 0.00 | 0.01 | 0.00 | 91 | 1031.5 |
| 20260510142702 | 50 | 144 | 2.0 | 6.0 | 0.00 | 0.01 | 0.00 | 91 | 1031.5 |
| 20260510141823 | 50 | 147 | 2.0 | 4.0 | 0.00 | 0.01 | 0.00 | 91 | 1031.6 |
| 20260510140902 | 50 | 157 | 3.0 | 4.0 | 0.00 | 0.01 | 0.00 | 91 | 1031.5 |
| 20260510140003 | 50 | 157 | 2.0 | 5.0 | 0.00 | 0.01 | 0.00 | 91 | 1031.6 |
| 20260510135402 | 51 | 157 | 2.0 | 5.0 | 0.00 | 0.01 | 0.01 | 91 | 1031.6 |
| 20260510134502 | 51 | 157 | 2.0 | 5.0 | 0.00 | 0.01 | 0.01 | 90 | 1031.7 |
| 20260510133602 | 51 | 157 | 1.0 | 5.0 | 0.00 | 0.01 | 0.01 | 90 | 1031.7 |
| 20260510132702 | 51 | 156 | 0.0 | 3.0 | 0.00 | 0.01 | 0.01 | 89 | 1031.7 |
| 20260510131802 | 51 | 0 | 0.0 | 2.0 | 0.00 | 0.01 | 0.01 | 89 | 1031.8 |
| 20260510130923 | 51 | 0 | 0.0 | 0.0 | 0.00 | 0.01 | 0.01 | 89 | 1031.7 |
| 20260510130002 | 52 | 157 | 0.0 | 3.0 | 0.00 | 0.01 | 0.01 | 89 | 1031.8 |
| 20260510125402 | 52 | 157 | 1.0 | 3.0 | 0.00 | 0.01 | 0.01 | 89 | 1031.9 |
| 20260510124502 | 52 | 157 | 1.0 | 4.0 | 0.00 | 0.01 | 0.01 | 89 | 1031.9 |
| 20260510123601 | 52 | 157 | 1.0 | 3.0 | 0.00 | 0.01 | 0.01 | 89 | 1031.9 |
| 20260510122702 | 52 | 157 | 1.0 | 3.0 | 0.00 | 0.01 | 0.01 | 89 | 1032.0 |
| 20260510121802 | 52 | 157 | 1.0 | 3.0 | 0.00 | 0.01 | 0.01 | 90 | 1031.9 |
| 20260510120902 | 52 | 157 | 1.0 | 4.0 | 0.00 | 0.01 | 0.01 | 90 | 1032.0 |
| 20260510120002 | 52 | 157 | 1.0 | 4.0 | 0.00 | 0.01 | 0.01 | 90 | 1032.0 |
| 20260510115402 | 53 | 157 | 1.0 | 4.0 | 0.00 | 0.01 | 0.01 | 90 | 1032.0 |
| 20260510114502 | 53 | 157 | 1.0 | 4.0 | 0.00 | 0.01 | 0.01 | 89 | 1032.1 |
| 20260510113602 | 53 | 157 | 1.0 | 3.0 | 0.00 | 0.01 | 0.01 | 90 | 1032.0 |
| 20260510112702 | 53 | 157 | 1.0 | 4.0 | 0.00 | 0.01 | 0.01 | 89 | 1032.0 |
| 20260510111802 | 53 | 153 | 2.0 | 4.0 | 0.00 | 0.01 | 0.01 | 89 | 1031.8 |
| 20260510110923 | 53 | 154 | 2.0 | 5.0 | 0.00 | 0.01 | 0.01 | 89 | 1031.7 |
| 20260510110023 | 53 | 157 | 2.0 | 5.0 | 0.00 | 0.01 | 0.01 | 88 | 1031.7 |
| 20260510105402 | 52 | 148 | 2.0 | 5.0 | 0.00 | 0.01 | 0.01 | 87 | 1031.7 |
| 20260510104523 | 52 | 153 | 1.0 | 4.0 | 0.00 | 0.01 | 0.01 | 86 | 1031.7 |
| 20260510103602 | 52 | 149 | 1.0 | 3.0 | 0.00 | 0.01 | 0.01 | 85 | 1031.5 |
| 20260510102702 | 52 | 124 | 0.0 | 2.0 | 0.00 | 0.01 | 0.01 | 85 | 1031.6 |
| 20260510101802 | 52 | 0 | 0.0 | 3.0 | 0.00 | 0.01 | 0.01 | 85 | 1031.6 |
| 20260510095403 | 52 | 0 | 0.0 | 2.0 | 0.00 | 0.01 | 0.01 | 85 | 1031.5 |
| 20260510094503 | 52 | 0 | 0.0 | 0.0 | 0.00 | 0.01 | 0.01 | 85 | 1031.5 |
| 20260510093624 | 52 | 0 | 0.0 | 0.0 | 0.00 | 0.01 | 0.01 | 85 | 1031.4 |
| 20260510092703 | 52 | 0 | 0.0 | 0.0 | 0.00 | 0.01 | 0.01 | 85 | 1031.3 |
| 20260510091803 | 52 | 0 | 0.0 | 1.0 | 0.00 | 0.01 | 0.01 | 84 | 1031.3 |
| 20260510090925 | 52 | 0 | 0.0 | 0.0 | 0.00 | 0.01 | 0.01 | 83 | 1031.3 |
| 20260510090004 | 52 | 0 | 0.0 | 1.0 | 0.00 | 0.01 | 0.01 | 82 | 1031.2 |
| 20260510085424 | 53 | 0 | 0.0 | 0.0 | 0.00 | 0.01 | 0.01 | 83 | 1031.3 |
| 20260510084525 | 53 | 0 | 0.0 | 0.0 | 0.00 | 0.01 | 0.01 | 82 | 1031.1 |
| 20260510083604 | 53 | 0 | 0.0 | 0.0 | 0.00 | 0.01 | 0.01 | 82 | 1031.0 |
| 20260510082703 | 53 | 0 | 0.0 | 0.0 | 0.00 | 0.01 | 0.01 | 81 | 1031.0 |
| 20260510081804 | 54 | 0 | 0.0 | 0.0 | 0.00 | 0.01 | 0.01 | 80 | 1031.0 |
| 20260510080904 | 54 | 0 | 0.0 | 0.0 | 0.00 | 0.01 | 0.01 | 79 | 1030.8 |
| 20260510080004 | 55 | 0 | 0.0 | 0.0 | 0.00 | 0.01 | 0.01 | 78 | 1030.8 |
| 20260510075404 | 55 | 0 | 0.0 | 0.0 | 0.00 | 0.01 | 0.01 | 78 | 1030.7 |
| 20260510074503 | 56 | 0 | 0.0 | 0.0 | 0.00 | 0.01 | 0.01 | 77 | 1030.6 |
| 20260510073603 | 56 | 0 | 0.0 | 2.0 | 0.00 | 0.01 | 0.01 | 76 | 1030.6 |
| 20260510072704 | 57 | 0 | 0.0 | 0.0 | 0.00 | 0.01 | 0.01 | 75 | 1030.5 |
| 20260510071803 | 58 | 0 | 0.0 | 2.0 | 0.00 | 0.01 | 0.01 | 74 | 1030.4 |
| 20260510070903 | 58 | 157 | 0.0 | 2.0 | 0.00 | 0.01 | 0.01 | 73 | 1030.4 |
| 20260510070004 | 59 | 157 | 1.0 | 2.0 | 0.00 | 0.01 | 0.01 | 73 | 1030.3 |
| 20260510065403 | 59 | 157 | 1.0 | 3.0 | 0.00 | 0.01 | 0.01 | 72 | 1030.2 |
| 20260510064524 | 60 | 157 | 1.0 | 3.0 | 0.00 | 0.01 | 0.01 | 71 | 1030.3 |
| 20260510063603 | 60 | 157 | 1.0 | 3.0 | 0.00 | 0.01 | 0.01 | 71 | 1030.2 |
| 20260510062703 | 60 | 157 | 1.0 | 4.0 | 0.00 | 0.01 | 0.01 | 70 | 1030.2 |
| 20260510061803 | 60 | 157 | 2.0 | 4.0 | 0.00 | 0.01 | 0.01 | 70 | 1030.1 |
| 20260510060903 | 60 | 157 | 2.0 | 4.0 | 0.00 | 0.01 | 0.01 | 69 | 1030.1 |
| 20260510060003 | 61 | 157 | 2.0 | 6.0 | 0.00 | 0.01 | 0.01 | 69 | 1030.1 |
| 20260510055403 | 61 | 157 | 2.0 | 6.0 | 0.00 | 0.01 | 0.01 | 68 | 1030.1 |
| 20260510054503 | 61 | 157 | 2.0 | 6.0 | 0.00 | 0.01 | 0.01 | 69 | 1030.1 |
| 20260510053603 | 61 | 157 | 1.0 | 5.0 | 0.00 | 0.01 | 0.01 | 70 | 1030.0 |
| 20260510052703 | 60 | 157 | 0.0 | 4.0 | 0.00 | 0.01 | 0.01 | 70 | 1029.9 |
| 20260510051803 | 60 | 157 | 0.0 | 1.0 | 0.00 | 0.01 | 0.01 | 71 | 1029.8 |
| 20260510050903 | 60 | 157 | 1.0 | 2.0 | 0.00 | 0.01 | 0.01 | 71 | 1029.9 |
| 20260510050003 | 61 | 157 | 2.0 | 3.0 | 0.00 | 0.01 | 0.01 | 68 | 1029.8 |
| 20260510045403 | 62 | 157 | 3.0 | 4.0 | 0.00 | 0.01 | 0.01 | 67 | 1029.7 |
| 20260510044503 | 62 | 157 | 3.0 | 9.0 | 0.00 | 0.01 | 0.01 | 67 | 1029.9 |
| 20260510043603 | 63 | 157 | 2.0 | 6.0 | 0.00 | 0.01 | 0.01 | 67 | 1029.8 |
| 20260510042703 | 62 | 157 | 1.0 | 4.0 | 0.00 | 0.01 | 0.01 | 69 | 1029.8 |
| 20260510041824 | 61 | 157 | 2.0 | 4.0 | 0.00 | 0.01 | 0.01 | 68 | 1029.9 |
| 20260510040903 | 61 | 157 | 2.0 | 5.0 | 0.00 | 0.01 | 0.01 | 68 | 1030.0 |
| 20260510040004 | 62 | 157 | 2.0 | 6.0 | 0.00 | 0.01 | 0.01 | 67 | 1030.1 |
| 20260510035403 | 62 | 157 | 2.0 | 6.0 | 0.00 | 0.01 | 0.01 | 67 | 1030.1 |
| 20260510034503 | 62 | 157 | 2.0 | 6.0 | 0.00 | 0.01 | 0.01 | 69 | 1030.1 |
| 20260510033603 | 61 | 157 | 2.0 | 5.0 | 0.00 | 0.01 | 0.01 | 68 | 1030.1 |
| 20260510032703 | 60 | 157 | 2.0 | 8.0 | 0.00 | 0.01 | 0.01 | 70 | 1030.1 |
| 20260510031803 | 59 | 157 | 2.0 | 8.0 | 0.00 | 0.01 | 0.01 | 72 | 1030.1 |
| 20260510030903 | 60 | 157 | 1.0 | 8.0 | 0.00 | 0.01 | 0.01 | 70 | 1030.2 |
| 20260510030004 | 60 | 157 | 1.0 | 3.0 | 0.00 | 0.01 | 0.01 | 70 | 1030.3 |
| 20260510025403 | 60 | 157 | 1.0 | 5.0 | 0.00 | 0.01 | 0.01 | 71 | 1030.3 |
| 20260510024503 | 60 | 157 | 1.0 | 4.0 | 0.00 | 0.01 | 0.01 | 71 | 1030.5 |
| 20260510023603 | 59 | 157 | 1.0 | 4.0 | 0.00 | 0.01 | 0.01 | 72 | 1030.6 |
| 20260510022703 | 59 | 157 | 1.0 | 3.0 | 0.00 | 0.01 | 0.01 | 72 | 1030.7 |
| 20260510021803 | 58 | 157 | 1.0 | 6.0 | 0.00 | 0.01 | 0.01 | 72 | 1030.9 |
| 20260510020924 | 58 | 157 | 1.0 | 4.0 | 0.00 | 0.01 | 0.01 | 73 | 1031.0 |
| 20260510020024 | 59 | 157 | 0.0 | 4.0 | 0.00 | 0.01 | 0.01 | 75 | 1031.0 |
| 20260510015425 | 58 | 157 | 1.0 | 4.0 | 0.00 | 0.01 | 0.01 | 75 | 1031.1 |
| 20260510014504 | 58 | 157 | 0.0 | 4.0 | 0.00 | 0.01 | 0.01 | 74 | 1031.2 |
| 20260510013603 | 58 | 0 | 0.0 | 2.0 | 0.00 | 0.01 | 0.01 | 76 | 1031.3 |
| 20260510012703 | 58 | 157 | 0.0 | 1.0 | 0.00 | 0.01 | 0.01 | 76 | 1031.4 |
| 20260510011824 | 58 | 157 | 0.0 | 2.0 | 0.00 | 0.01 | 0.01 | 78 | 1031.5 |
| 20260510010903 | 57 | 0 | 0.0 | 2.0 | 0.00 | 0.01 | 0.01 | 79 | 1031.4 |
| 20260510010003 | 56 | 0 | 0.0 | 3.0 | 0.00 | 0.01 | 0.01 | 81 | 1031.4 |
| 20260510005404 | 56 | 0 | 0.0 | 2.0 | 0.00 | 0.01 | 0.01 | 83 | 1031.4 |
| 20260510004503 | 56 | 0 | 0.0 | 1.0 | 0.00 | 0.01 | 0.01 | 84 | 1031.4 |
| 20260510003603 | 56 | 0 | 0.0 | 2.0 | 0.00 | 0.01 | 0.01 | 86 | 1031.5 |
| 20260510002703 | 55 | 157 | 0.0 | 3.0 | 0.00 | 0.01 | 0.01 | 89 | 1031.5 |
| 20260510001803 | 56 | 0 | 0.0 | 2.0 | 0.00 | 0.01 | 0.01 | 91 | 1031.4 |
| 20260510000903 | 56 | 0 | 0.0 | 2.0 | 0.00 | 0.01 | 0.01 | 93 | 1031.4 |
| 20260510000003 | 55 | 157 | 0.0 | 3.0 | 0.00 | 0.01 | 0.01 | 93 | 1031.4 |
| 20260509235403 | 55 | 157 | 0.0 | 3.0 | 0.00 | 0.01 | 0.01 | 94 | 1031.4 |
| 20260509234503 | 55 | 0 | 0.0 | 2.0 | 0.00 | 0.01 | 0.01 | 95 | 1031.3 |
| 20260509233603 | 54 | 0 | 0.0 | 2.0 | 0.00 | 0.01 | 0.01 | 94 | 1031.3 |
| 20260509232703 | 54 | 0 | 0.0 | 2.0 | 0.00 | 0.01 | 0.01 | 95 | 1031.2 |
| 20260509231803 | 54 | 0 | 0.0 | 0.0 | 0.00 | 0.01 | 0.01 | 95 | 1031.3 |
| 20260509230903 | 54 | 0 | 0.0 | 2.0 | 0.00 | 0.01 | 0.01 | 94 | 1031.3 |
| 20260509230024 | 54 | 0 | 0.0 | 1.0 | 0.00 | 0.01 | 0.01 | 94 | 1031.3 |
| 20260509225403 | 54 | 0 | 0.0 | 0.0 | 0.00 | 0.01 | 0.01 | 95 | 1031.2 |
| 20260509224524 | 54 | 0 | 0.0 | 0.0 | 0.00 | 0.01 | 0.01 | 95 | 1031.2 |
| 20260509223603 | 54 | 0 | 0.0 | 0.0 | 0.00 | 0.01 | 0.01 | 95 | 1031.1 |
| 20260509222704 | 53 | 0 | 0.0 | 0.0 | 0.00 | 0.01 | 0.01 | 95 | 1031.0 |
| 20260509221803 | 53 | 0 | 0.0 | 0.0 | 0.00 | 0.01 | 0.01 | 95 | 1030.9 |
| 20260509220903 | 53 | 0 | 0.0 | 0.0 | 0.00 | 0.01 | 0.01 | 94 | 1030.8 |
| 20260509220003 | 53 | 0 | 0.0 | 0.0 | 0.00 | 0.01 | 0.01 | 94 | 1030.6 |
| 20260509215403 | 53 | 0 | 0.0 | 0.0 | 0.00 | 0.01 | 0.01 | 94 | 1030.6 |
| 20260509214503 | 53 | 0 | 0.0 | 0.0 | 0.00 | 0.01 | 0.01 | 94 | 1030.5 |
| 20260509213603 | 52 | 0 | 0.0 | 0.0 | 0.00 | 0.01 | 0.01 | 94 | 1030.3 |
| 20260509212703 | 52 | 0 | 0.0 | 0.0 | 0.00 | 0.01 | 0.01 | 94 | 1030.2 |
| 20260509211803 | 52 | 0 | 0.0 | 0.0 | 0.00 | 0.01 | 0.01 | 94 | 1030.1 |
| 20260509210903 | 52 | 0 | 0.0 | 0.0 | 0.00 | 0.01 | 0.01 | 94 | 1030.0 |
| 20260509210003 | 52 | 0 | 0.0 | 0.0 | 0.00 | 0.01 | 0.01 | 94 | 1029.9 |
| 20260509205403 | 53 | 0 | 0.0 | 0.0 | 0.00 | 0.01 | 0.01 | 94 | 1029.9 |
| 20260509204503 | 53 | 0 | 0.0 | 0.0 | 0.00 | 0.02 | 0.01 | 94 | 1029.7 |
| 20260509203603 | 53 | 0 | 0.0 | 0.0 | 0.00 | 0.02 | 0.01 | 94 | 1029.7 |
| 20260509202724 | 53 | 0 | 0.0 | 0.0 | 0.00 | 0.02 | 0.01 | 94 | 1029.6 |
| 20260509201803 | 53 | 0 | 0.0 | 0.0 | 0.00 | 0.02 | 0.01 | 94 | 1029.6 |
| 20260509200903 | 53 | 0 | 0.0 | 0.0 | 0.00 | 0.02 | 0.01 | 94 | 1029.5 |
| 20260509200003 | 53 | 0 | 0.0 | 0.0 | 0.00 | 0.02 | 0.01 | 94 | 1029.5 |
| 20260509195403 | 53 | 0 | 0.0 | 0.0 | 0.00 | 0.02 | 0.01 | 94 | 1029.3 |
| 20260509194503 | 53 | 0 | 0.0 | 0.0 | 0.00 | 0.02 | 0.01 | 94 | 1029.3 |
| 20260509193603 | 53 | 0 | 0.0 | 0.0 | 0.00 | 0.02 | 0.01 | 94 | 1029.2 |
| 20260509192703 | 53 | 0 | 0.0 | 0.0 | 0.00 | 0.02 | 0.01 | 94 | 1029.1 |
| 20260509191824 | 53 | 0 | 0.0 | 0.0 | 0.00 | 0.02 | 0.01 | 94 | 1029.1 |
| 20260509190924 | 53 | 0 | 0.0 | 0.0 | 0.00 | 0.02 | 0.01 | 94 | 1029.0 |
| 20260509190003 | 53 | 0 | 0.0 | 1.0 | 0.00 | 0.02 | 0.01 | 94 | 1029.0 |
| 20260509185403 | 53 | 0 | 0.0 | 1.0 | 0.00 | 0.02 | 0.01 | 94 | 1028.9 |
| 20260509184503 | 53 | 0 | 0.0 | 1.0 | 0.00 | 0.02 | 0.01 | 94 | 1028.7 |
| 20260509183602 | 53 | 0 | 0.0 | 0.0 | 0.00 | 0.02 | 0.01 | 94 | 1028.7 |
| 20260509182703 | 54 | 0 | 0.0 | 0.0 | 0.00 | 0.02 | 0.01 | 94 | 1028.6 |
| 20260509181803 | 54 | 0 | 0.0 | 0.0 | 0.00 | 0.02 | 0.01 | 94 | 1028.6 |
| 20260509180903 | 54 | 0 | 0.0 | 0.0 | 0.00 | 0.02 | 0.01 | 93 | 1028.5 |
| 20260509180003 | 54 | 0 | 0.0 | 1.0 | 0.00 | 0.02 | 0.01 | 93 | 1028.4 |
| 20260509175403 | 54 | 0 | 0.0 | 3.0 | 0.00 | 0.02 | 0.01 | 93 | 1028.4 |
| 20260509174503 | 54 | 0 | 0.0 | 0.0 | 0.00 | 0.02 | 0.01 | 93 | 1028.5 |
| 20260509173603 | 54 | 0 | 0.0 | 0.0 | 0.00 | 0.02 | 0.01 | 93 | 1028.4 |
| 20260509172703 | 54 | 0 | 0.0 | 0.0 | 0.00 | 0.02 | 0.01 | 93 | 1028.4 |
| 20260509171803 | 54 | 0 | 0.0 | 0.0 | 0.00 | 0.02 | 0.01 | 93 | 1028.5 |
| 20260509170924 | 54 | 0 | 0.0 | 0.0 | 0.00 | 0.02 | 0.01 | 93 | 1028.5 |
| 20260509170024 | 54 | 0 | 0.0 | 0.0 | 0.01 | 0.02 | 0.01 | 93 | 1028.4 |
| 20260509165403 | 54 | 0 | 0.0 | 0.0 | 0.01 | 0.02 | 0.01 | 93 | 1028.5 |
| 20260509164503 | 54 | 0 | 0.0 | 0.0 | 0.01 | 0.02 | 0.01 | 93 | 1028.6 |
| 20260509163603 | 54 | 0 | 0.0 | 0.0 | 0.01 | 0.02 | 0.01 | 93 | 1028.6 |
| 20260509162724 | 54 | 0 | 0.0 | 0.0 | 0.01 | 0.02 | 0.01 | 93 | 1028.5 |
| 20260509161803 | 54 | 0 | 0.0 | 0.0 | 0.01 | 0.02 | 0.01 | 93 | 1028.6 |
| 20260509160903 | 54 | 157 | 1.0 | 2.0 | 0.01 | 0.02 | 0.01 | 93 | 1028.6 |